Lapse_Rate
4.8 4.6 3.8 3.1 3.4 2.7 2.6 2.9 4.7 5.2 5.2 4.9 4.8 4.8 5.2 5.3 5.5 5.9 6.5 5.6 4.2 4.0 3.2 3.9 4.4 4.5 4.2 3.9 3.7 3.5 3.6 3.6 3.7 3.8 3.7 3.6 3.5 3.6 3.7 3.7 3.7 3.7 3.6
4.7 5.1 5.2 5.2 4.6 3.7 2.7 2.9 5.3 5.5 5.5 5.2 5.4 5.1 5.1 5.3 5.5 5.5 6.1 6.3 5.1 4.2 3.8 3.2 4.0 4.6 4.7 4.5 4.0 3.6 3.5 3.6 3.6 3.7 3.9 3.7 3.6 3.5 3.5 3.5 3.6 3.7 3.6
4.4 4.9 5.6 5.5 5.4 4.8 3.8 4.3 4.5 4.6 5.0 5.0 4.8 5.3 5.2 5.1 5.2 5.2 5.5 6.0 6.6 5.7 4.4 3.5 3.0 3.8 4.5 4.9 4.7 4.3 3.9 3.6 3.5 3.5 3.6 3.6 3.5 3.5 3.3 3.3 3.3 3.3 3.3
4.3 5.1 6.2 6.2 6.0 5.4 5.2 5.7 5.5 5.6 5.5 5.7 5.5 5.6 5.9 5.4 5.2 4.9 5.0 5.2 6.2 6.6 6.4 4.4 2.8 2.9 3.3 4.0 4.7 4.9 4.6 4.0 3.5 3.4 3.4 3.3 3.3 3.3 3.1 3.0 3.0 3.1 3.1
5.2 4.9 6.3 6.5 5.8 6.0 6.3 6.2 6.2 5.7 6.5 6.2 6.1 6.0 5.5 5.4 5.7 6.2 6.0 5.5 5.2 5.2 6.3 6.3 4.1 2.6 2.7 3.0 3.6 4.4 4.6 4.6 4.1 3.5 3.1 3.0 3.0 2.9 3.0 3.0 2.9 3.0 2.9
5.9 6.0 6.2 6.1 5.9 6.4 6.6 6.6 6.1 6.7 6.0 6.7 6.9 7.0 6.3 5.9 5.9 5.8 5.8 5.8 6.0 5.3 5.1 5.3 5.8 5.4 2.9 1.7 2.0 2.7 3.6 4.2 4.4 4.3 3.9 3.3 2.8 2.7 2.8 2.7 2.8 2.8 2.9
2.9 5.8 6.4 5.9 6.0 6.2 7.0 7.1 6.6 6.5 7.0 6.3 6.3 6.8 7.3 6.4 5.8 6.1 6.3 6.2 6.5 6.0 5.5 5.2 5.3 6.1 6.4 2.6 1.7 1.8 3.0 3.7 4.0 4.1 4.1 3.9 3.6 2.9 2.5 2.4 2.5 2.5 2.7
1.3 1.8 2.7 4.6 6.2 6.6 6.0 6.3 6.4 6.8 7.3 7.7 8.1 8.6 8.0 8.6 8.4 6.2 6.4 6.4 5.8 6.4 6.6 5.9 5.2 5.3 5.6 5.9 5.4 3.3 1.3 2.5 3.3 3.7 3.8 3.7 3.4 3.2 2.7 2.3 2.4 2.5 2.5
1.7 1.7 2.2 2.3 2.6 3.9 5.3 5.9 6.6 6.6 7.2 7.9 6.0 8.5 8.0 7.8 8.4 8.9 6.9 7.2 6.5 6.3 6.4 6.5 5.7 5.2 5.6 5.5 4.9 4.3 2.3 1.2 1.2 2.2 2.9 3.1 2.9 2.9 2.9 2.5 2.5 2.4 2.6
2.3 2.1 2.7 2.2 1.9 1.8 2.2 2.3 3.5 4.9 6.8 7.0 8.5 6.7 7.0 8.1 8.2 8.4 9.1 9.1 8.0 7.5 7.0 7.6 7.8 6.6 6.3 5.8 4.9 4.1 4.2 2.0 1.0 1.5 2.4 2.7 2.6 2.6 2.6 2.7 2.5 2.3 2.3
3.4 3.2 2.7 3.7 2.3 2.4 2.2 2.6 3.2 3.4 3.7 5.0 6.7 7.9 6.8 5.7 6.3 7.0 7.8 8.4 9.2 9.4 8.9 8.1 7.8 7.6 7.0 6.5 6.7 5.1 2.7 0.3 -0.1 -0.1 0.5 1.1 1.6 2.0 2.2 2.3 2.5 2.5 2.5
4.5 4.1 3.7 3.1 3.4 3.2 2.6 2.5 3.0 3.4 3.5 3.1 3.7 5.1 6.3 7.2 7.0 7.0 7.0 7.9 8.2 7.9 9.3 9.5 8.7 7.8 7.9 7.5 6.1 4.5 3.5 1.0 -0.6 -0.7 -0.7 -0.3 0.2 0.7 1.4 1.8 2.2 2.4 2.5
3.8 3.9 3.8 3.8 4.2 4.4 3.3 2.9 3.0 2.4 2.2 2.4 2.6 2.9 3.3 4.1 5.1 5.5 5.9 6.6 6.6 7.7 8.8 9.3 9.4 7.8 7.7 7.5 7.2 5.6 4.5 1.3 -0.1 -0.7 -1.3 -1.2 -0.6 -0.1 0.3 1.0 1.7 2.3 2.5
4.3 4.0 4.0 3.9 4.2 4.1 3.7 3.5 3.5 2.7 2.5 1.7 2.1 2.1 2.8 4.6 4.3 5.0 5.9 6.1 6.5 7.8 6.8 7.9 8.1 9.4 8.1 7.0 6.2 4.3 4.8 3.7 0.4 -1.1 -1.1 -1.2 -1.4 -1.2 -0.8 -0.0 0.6 1.5 1.9
4.0 3.7 3.7 3.9 3.7 4.0 3.4 3.8 3.7 3.0 3.3 3.4 3.3 3.1 3.2 2.9 3.8 3.3 3.5 5.1 5.8 6.6 7.6 8.3 8.3 5.5 5.2 4.9 5.4 5.5 5.7 4.7 2.1 -0.4 -0.9 -1.8 -1.1 -0.6 -0.8 -1.0 -0.4 0.4 0.7
3.3 3.2 3.3 3.5 3.7 3.3 2.9 3.2 3.1 3.5 3.4 3.3 3.8 3.9 4.7 5.0 4.5 5.2 4.4 4.1 5.7 6.2 6.7 8.5 9.0 8.5 8.0 6.2 5.4 5.4 5.3 3.0 2.7 0.5 -0.9 -1.4 -2.6 -1.7 -1.6 -1.5 -1.2 -0.6 -0.3
3.0 3.2 3.1 3.3 3.5 3.2 3.0 2.9 3.1 3.2 3.1 3.7 4.1 4.0 4.1 5.1 5.1 5.5 5.9 5.6 5.4 5.3 6.0 6.8 7.6 7.2 6.3 6.6 7.1 7.4 5.3 5.2 6.1 2.2 0.1 -0.9 -1.7 -2.3 -2.6 -2.8 -2.9 -1.9 -0.9
3.1 2.8 2.7 3.0 3.3 3.1 3.1 2.7 2.8 2.9 3.0 3.2 3.8 4.1 4.6 5.2 5.6 5.8 4.6 5.5 5.0 4.9 4.8 5.3 6.6 6.8 6.5 7.4 7.1 7.3 7.5 6.7 5.2 3.2 0.0 -1.5 -2.2 -2.8 -3.4 -2.7 -2.6 -1.9 -2.2
3.0 2.9 3.0 3.0 3.1 2.9 3.1 3.1 3.1 3.1 3.6 3.9 3.9 4.2 4.6 5.0 5.1 4.3 4.7 5.3 5.0 4.9 5.3 5.8 6.9 7.5 7.9 7.6 7.9 7.2 7.3 7.5 6.8 2.6 -1.9 -2.4 -3.3 -3.6 -3.4 -2.0 -2.9 -2.5 -1.9
2.8 2.8 3.0 3.2 3.3 3.6 3.4 2.8 2.5 2.2 2.9 4.0 4.4 4.4 4.9 5.5 5.5 5.7 6.1 6.8 6.3 6.0 6.9 6.3 6.4 7.2 7.6 7.7 7.7 7.1 4.8 4.6 4.0 3.2 0.2 -1.4 -1.8 -2.4 -2.4 -4.2 -2.0 -1.1 -2.8
2.9 3.0 3.2 3.8 4.0 5.0 5.7 3.2 3.2 3.3 3.7 4.0 5.0 5.6 5.5 4.4 4.7 4.9 6.0 6.4 6.1 6.0 5.4 5.3 5.7 6.2 6.2 5.7 5.3 3.8 4.2 4.7 3.9 1.5 1.5 0.4 -0.5 -1.0 -1.3 -2.3 -1.8 -3.2 -2.3
3.0 2.8 3.0 3.7 4.0 6.2 3.9 3.7 4.8 5.3 6.5 7.3 7.4 7.5 6.6 5.8 6.0 4.4 4.8 4.5 4.5 7.2 7.9 8.1 7.7 7.1 6.8 4.7 3.8 3.0 3.5 4.2 5.0 1.4 2.0 1.6 0.9 -0.7 -1.7 -2.7 -2.5 -2.1 -2.7
3.4 3.9 4.7 6.1 6.2 6.2 3.6 3.0 4.2 6.8 7.4 8.5 8.3 8.1 8.0 8.8 6.7 7.6 6.0 5.5 6.5 5.4 5.6 7.0 8.5 8.6 8.3 8.3 5.7 3.2 3.2 3.7 4.4 3.4 2.9 2.0 0.1 -0.2 0.0 0.9 1.0 0.5 0.2
4.4 4.3 4.5 4.4 4.6 5.5 4.4 4.4 4.4 7.7 9.1 9.1 8.3 6.5 5.7 5.8 6.7 6.0 5.9 5.9 5.9 6.3 6.0 6.9 8.3 8.6 8.4 6.9 6.0 5.3 3.8 3.1 3.3 2.9 2.5 3.0 0.1 -0.0 -0.3 1.1 2.1 1.2 1.2
5.2 5.1 5.6 5.4 5.5 5.4 5.3 5.9 6.6 9.1 8.6 7.8 6.5 6.7 6.5 6.0 5.8 6.5 6.6 6.4 7.0 6.2 6.2 5.5 4.9 4.6 4.9 4.1 3.7 3.9 3.4 4.1 4.1 3.5 1.2 2.5 0.3 -0.0 -0.4 0.1 0.6 1.5 1.9
6.7 7.1 7.0 8.0 7.8 8.3 7.1 6.2 6.8 9.0 8.0 6.9 6.4 6.8 5.8 5.5 5.0 5.6 7.6 7.6 7.3 7.1 7.0 6.3 5.5 5.3 5.8 5.7 3.6 4.3 4.6 4.7 4.9 4.7 1.6 2.5 0.1 0.4 1.7 0.3 0.3 0.2 0.8
Wind_Speed
9 11 11 10 10 10 10 10 12 12 12 13 13 14 14 15 15 15 15 17 19 19 16 18 23 22 21 21 22 22 22 22 22 22 22 23 23 22 22 22 21 21 21
13 12 11 12 12 12 11 12 12 11 10 12 12 15 16 17 17 17 17 17 18 20 19 18 21 23 23 23 23 23 23 24 24 24 23 24 25 24 25 24 24 23 23
14 16 12 10 14 14 14 13 13 12 9 12 12 14 15 17 18 19 18 18 18 18 19 21 21 23 23 22 23 24 24 25 26 25 25 26 26 26 26 26 26 25 25
18 16 11 10 16 14 13 10 9 9 10 10 10 10 9 14 16 18 19 19 19 18 17 21 23 24 24 24 25 25 25 25 26 27 27 28 29 29 28 27 27 27 26
18 16 14 16 17 14 10 9 9 9 10 10 10 10 10 11 12 17 18 20 20 20 19 20 23 25 26 27 27 28 28 28 28 28 28 29 30 30 29 28 28 28 28
17 17 15 16 17 10 11 10 12 11 11 11 10 12 11 11 11 12 13 19 21 21 20 21 19 19 24 28 29 29 30 30 31 31 30 30 30 30 30 30 30 30 30
20 14 11 10 12 11 13 13 11 13 12 10 9 11 12 14 16 14 12 13 14 20 22 20 19 18 18 24 28 27 29 31 31 32 33 32 32 31 31 31 31 30 30
22 15 10 7 9 10 12 13 13 12 11 10 9 9 10 12 11 12 11 12 14 12 12 17 18 18 19 18 21 24 27 29 30 30 31 31 31 33 32 31 30 29 30
21 20 16 11 9 8 6 10 13 15 13 12 13 9 8 10 9 6 9 9 11 8 9 11 15 17 17 17 18 20 27 29 28 29 30 31 31 31 33 33 32 31 31
20 22 18 14 9 6 9 8 8 8 13 13 10 11 15 15 13 14 11 8 9 11 10 9 10 14 17 16 19 22 21 25 29 29 30 31 31 31 32 32 32 32 31
20 21 21 17 10 7 7 8 6 6 7 7 11 11 9 10 12 10 12 12 11 9 9 9 10 10 17 17 17 19 26 31 31 30 30 30 30 30 31 31 31 32 31
12 21 22 18 17 11 11 9 9 9 7 4 7 9 9 8 8 10 10 13 13 11 11 10 11 11 15 16 18 24 25 28 30 30 29 28 28 29 29 30 31 31 31
11 14 19 15 10 17 13 12 11 11 11 8 8 4 4 5 5 6 8 7 8 6 8 9 11 11 12 16 17 19 21 27 28 29 29 27 27 28 29 29 29 30 30
11 19 18 17 19 20 19 15 8 8 10 9 14 10 6 4 4 5 5 6 9 11 5 8 7 8 7 9 13 21 19 22 25 28 28 27 26 26 26 27 28 29 28
13 17 19 15 18 17 17 15 10 11 12 11 10 10 9 8 9 7 7 6 6 10 13 13 9 10 9 9 10 10 14 18 23 26 27 26 24 24 24 25 26 28 27
18 16 15 15 14 15 18 14 12 13 14 11 10 12 10 7 8 7 6 8 8 9 12 12 12 12 9 8 14 13 14 19 19 20 26 24 21 20 21 22 24 25 25
16 13 13 13 13 13 14 13 13 14 14 13 13 13 13 13 8 9 8 7 8 7 11 9 10 10 15 13 12 13 15 12 15 14 19 21 21 20 20 19 20 22 22
16 15 14 12 12 12 13 15 15 15 15 15 14 13 14 10 13 11 8 11 9 9 9 15 12 9 10 14 13 15 13 11 13 15 15 16 19 19 19 16 13 13 16
13 14 13 12 13 12 12 13 13 14 14 13 14 14 13 13 11 9 10 9 10 10 11 10 11 9 10 9 12 11 13 14 10 14 9 10 10 13 14 11 8 13 12
12 12 11 11 11 11 10 14 15 14 14 13 13 13 13 13 13 13 12 13 12 12 12 11 9 9 9 11 10 9 9 8 9 8 6 9 10 9 10 6 13 13 14
10 12 11 10 10 10 8 15 15 14 14 14 14 13 12 15 17 12 10 12 14 12 11 11 11 9 7 7 8 6 8 9 8 3 4 4 6 6 7 8 6 10 13
11 10 11 11 12 9 14 17 15 15 15 14 14 14 14 15 12 15 11 12 11 13 14 11 11 12 12 9 7 8 8 7 6 3 6 4 5 5 6 7 13 12 16
10 11 11 12 12 12 16 17 16 14 14 14 15 14 14 11 14 14 17 16 15 10 11 12 15 14 16 14 12 12 9 8 6 7 4 3 4 3 5 5 11 15 16
11 11 11 12 12 10 13 14 14 15 14 14 14 14 15 15 14 16 17 16 14 14 14 12 14 15 15 16 15 12 12 10 8 6 3 2 2 3 3 4 10 14 15
11 10 11 12 13 13 13 15 16 15 13 14 13 14 14 16 19 19 16 17 16 12 13 17 18 20 18 19 15 11 9 7 5 2 2 3 1 1 2 3 4 10 10
10 10 12 12 12 13 13 15 16 11 14 11 12 12 14 15 19 21 16 15 15 12 12 13 13 14 14 13 13 10 8 9 5 4 2 3 2 2 2 2 2 3 3
Wind_Direction
241 232 227 219 218 218 225 235 237 239 241 243 245 249 254 254 256 262 267 274 281 283 272 255 240 237 235 233 235 237 240 243 246 247 246 249 251 252 252 252 252 253 253
252 247 245 239 235 227 226 233 238 241 245 247 249 248 252 258 257 256 259 268 275 281 281 261 249 244 240 236 237 237 238 241 243 245 247 248 250 250 251 251 251 251 251
252 251 252 248 245 240 242 242 244 245 251 248 252 256 255 256 260 261 259 260 265 266 269 264 250 248 248 245 242 240 240 241 243 244 245 245 247 248 247 248 248 248 247
238 246 250 251 255 252 251 249 247 249 252 253 257 257 258 257 257 262 264 260 258 260 258 256 254 246 244 247 247 247 245 243 243 243 243 243 243 244 243 243 244 246 247
244 237 246 252 249 249 249 252 253 250 258 258 260 262 260 260 260 259 258 261 259 258 259 257 250 249 244 242 245 248 249 248 247 244 241 241 242 242 241 240 241 242 243
249 244 250 250 247 248 247 245 247 245 251 258 262 265 263 262 260 259 257 258 259 258 256 256 259 254 246 244 242 243 247 248 249 248 246 245 243 242 241 239 238 237 238
351 268 255 258 250 253 256 254 252 252 256 254 263 266 266 260 259 256 253 255 257 253 253 251 250 255 257 244 246 248 249 248 247 246 245 243 244 243 239 239 239 238 238
6 1 8 326 272 248 251 249 247 253 253 254 252 268 280 272 249 250 246 248 248 254 254 250 255 253 253 259 262 248 243 246 248 248 249 247 242 240 241 240 240 239 239
1 358 7 12 9 348 263 257 248 244 252 244 225 242 267 263 294 249 239 249 250 238 247 250 242 244 249 252 254 252 245 242 244 246 247 247 245 242 239 238 242 241 240
2 2 357 15 6 2 356 14 358 305 258 251 241 231 241 260 273 281 264 250 266 266 252 245 259 257 250 251 253 251 247 240 240 242 245 246 246 243 239 238 237 238 240
6 4 359 5 13 358 354 348 334 354 6 312 263 254 237 239 244 249 273 268 260 256 259 263 249 250 257 259 263 257 246 241 241 242 244 244 244 243 241 240 238 237 236
2 3 2 359 8 3 356 350 350 0 17 38 19 9 309 267 251 246 247 265 268 267 270 268 262 261 261 260 257 261 255 244 242 244 246 245 242 241 240 240 239 238 236
2 360 1 356 356 358 357 354 1 356 358 348 30 19 337 33 0 306 330 296 282 293 276 274 269 265 262 265 269 261 258 249 247 246 245 243 240 238 237 236 238 238 236
358 357 359 1 359 9 4 1 354 360 345 358 357 354 345 316 307 304 290 307 301 291 297 273 291 271 272 278 293 292 281 273 260 253 250 245 239 233 232 234 235 232 230
359 356 358 358 360 1 358 359 357 360 357 356 355 357 354 342 336 311 288 267 262 284 280 280 259 234 244 244 264 274 277 278 273 263 259 256 248 239 233 230 231 228 227
1 357 357 357 359 359 360 359 357 355 353 355 356 351 342 334 322 304 317 337 298 268 275 279 287 292 288 287 290 276 278 292 274 271 270 264 255 253 241 230 228 228 222
359 358 356 355 356 356 357 356 356 354 354 350 350 344 336 333 329 328 334 330 317 323 303 306 301 319 327 313 298 282 274 278 284 272 266 261 260 252 245 233 222 218 219
358 358 356 355 355 354 358 358 353 352 350 348 345 343 337 336 336 359 347 335 333 324 316 311 314 310 302 300 298 296 291 284 278 272 259 265 255 247 238 233 222 226 199
356 357 357 355 352 349 352 352 348 345 344 341 340 336 335 336 340 342 331 328 321 321 314 307 310 311 304 306 310 326 324 307 288 278 273 282 299 279 259 219 185 189 163
356 354 351 348 347 343 343 346 343 340 336 335 335 331 328 328 327 327 326 323 325 316 310 309 311 308 320 317 322 341 336 341 328 335 359 9 10 359 315 351 222 203 174
352 351 348 343 343 338 349 340 337 333 328 323 327 325 323 324 316 327 322 324 323 322 320 317 315 314 322 336 337 338 328 324 331 2 329 11 344 349 345 46 14 88 124
354 346 343 340 335 332 340 332 332 326 325 319 322 322 320 311 324 311 307 295 297 311 311 309 309 307 311 327 327 329 325 342 331 35 355 334 346 14 353 22 54 67 89
342 340 334 332 328 324 332 320 319 324 320 317 320 320 320 322 318 322 321 312 305 296 274 298 302 307 309 316 319 314 314 311 294 306 323 307 13 17 358 29 63 76 74
337 335 330 331 323 322 314 310 312 317 319 320 321 322 319 318 318 325 322 317 314 311 312 310 303 304 306 311 306 298 296 292 284 263 221 276 359 49 351 26 67 87 94
329 325 324 319 315 315 312 316 320 325 319 322 318 318 315 313 315 312 311 309 306 300 297 296 296 294 285 300 293 296 287 286 293 247 197 138 7 104 44 32 35 81 103
323 320 315 313 309 311 321 320 317 323 320 321 314 308 300 295 297 300 304 304 300 298 296 294 296 293 284 297 292 289 290 279 277 287 201 141 163 145 83 6 42 70 60